Theta_e
287 287 288 288 287 287 287 287 286 286 286 286 285 285 285 284 284 284 283 283 283 283 283 282 282 282 281 281 281 281 281 281 280 280 280 279 278 277 277 277 276 276 276 276 275 275 275 275 276 276 277 277 276 276 276 276 276 276 276 276 276 276 275 275 275 275 275 275 275
287 287 287 287 287 287 287 286 286 286 286 285 285 285 285 284 284 283 283 283 283 283 282 282 281 281 281 281 281 281 281 280 279 279 279 278 277 276 276 276 276 276 276 275 275 275 275 275 275 276 277 276 276 276 275 275 275 275 275 275 275 276 276 275 275 275 275 275 275
287 287 287 287 287 287 286 286 286 285 285 285 285 285 284 284 284 284 283 283 282 282 282 282 281 281 280 280 281 281 280 280 279 278 278 277 276 276 276 276 275 275 276 275 275 275 275 275 275 276 277 277 275 275 275 275 275 275 275 275 275 276 276 276 276 275 275 275 275
287 287 287 286 286 286 286 286 285 285 284 284 283 283 283 284 283 283 283 282 281 281 281 281 281 281 280 280 280 280 279 279 278 277 277 276 275 275 275 275 275 275 275 275 275 275 274 275 276 276 276 275 274 275 275 275 275 275 275 275 275 275 276 276 275 275 275 275 274
286 287 287 287 286 286 286 286 285 284 284 284 283 283 283 283 282 282 281 281 282 281 281 281 281 281 280 280 279 278 278 278 278 277 276 275 275 275 275 275 275 274 274 275 274 274 274 274 275 276 275 274 275 275 275 274 274 274 275 275 275 275 275 275 275 275 275 275 275
286 287 287 287 286 286 286 285 284 284 284 284 283 283 283 283 282 282 282 282 281 281 280 280 281 280 280 279 278 278 277 277 277 276 275 275 274 274 274 274 274 274 274 274 274 274 274 274 275 275 275 275 274 274 274 274 274 274 274 275 275 275 275 275 275 275 275 275 274
286 286 286 286 285 285 285 284 284 284 283 283 283 282 282 282 282 282 281 281 281 280 280 281 281 280 279 278 278 277 277 276 276 275 275 275 274 274 273 273 273 273 273 273 273 273 273 273 275 275 275 276 275 274 273 273 274 274 274 274 275 275 275 274 274 274 274 273 273
286 286 286 285 285 285 284 284 284 283 283 283 283 282 282 282 281 281 281 281 280 280 281 281 280 279 279 279 278 277 276 275 275 275 274 274 274 273 273 273 273 272 272 273 273 272 272 273 274 274 274 275 275 274 273 272 272 272 272 272 273 273 273 272 273 273 273 273 272
286 285 285 285 285 284 284 283 283 283 283 283 282 282 282 281 281 281 281 280 280 281 281 280 280 279 279 278 277 277 276 276 275 274 274 274 273 273 272 272 272 272 272 272 272 272 272 273 274 274 274 274 274 273 272 271 271 271 271 271 271 272 272 272 272 272 272 272 272
285 285 285 284 284 284 283 283 283 283 283 282 282 282 281 282 281 281 281 281 281 280 280 280 279 278 278 277 277 276 276 275 275 274 274 274 273 273 272 272 272 272 271 271 272 272 272 273 272 272 272 272 272 271 270 271 271 270 271 272 272 271 271 271 271 272 272 272 272
285 285 285 284 284 283 283 282 282 282 282 282 281 281 281 281 281 281 281 281 280 280 279 279 279 278 278 277 277 276 276 275 275 274 273 273 273 273 272 272 272 272 271 271 271 271 272 272 271 270 270 270 270 270 270 270 270 270 270 271 271 271 271 271 271 272 272 272 271
285 284 284 284 283 283 282 282 282 282 282 281 281 281 281 281 280 280 280 280 279 279 279 279 278 278 278 277 277 276 275 275 274 274 273 273 272 272 272 272 272 271 271 271 271 271 271 271 270 270 270 269 270 270 270 270 270 271 271 271 271 271 271 270 270 271 271 270 270
284 284 283 283 282 282 282 282 282 281 281 281 281 281 281 280 280 280 280 279 279 279 278 278 278 278 278 277 276 276 275 275 274 274 274 273 272 272 272 272 271 271 271 271 271 271 271 270 270 270 270 270 270 271 271 270 271 271 270 270 270 270 270 269 269 269 269 269 269
284 283 283 283 282 282 282 282 281 281 281 280 280 280 280 280 280 280 279 279 279 278 278 277 278 277 277 277 276 275 275 274 274 274 273 273 273 272 272 272 271 271 271 271 271 271 271 270 270 270 270 270 271 271 271 270 270 270 270 269 269 268 268 268 268 268 268 268 268
283 283 282 282 282 282 282 281 281 281 281 280 280 280 280 280 279 279 279 278 278 278 277 277 277 277 276 276 275 275 274 274 274 274 273 273 272 272 272 271 271 271 271 271 271 271 271 270 270 270 270 269 270 271 271 270 270 269 269 269 268 268 268 268 267 267 267 267 267
283 282 282 282 281 281 281 281 281 281 280 280 280 280 279 279 279 279 278 278 278 277 277 277 276 276 275 275 275 275 274 274 274 274 273 273 272 272 271 271 270 270 270 270 270 270 270 271 270 270 269 269 268 269 269 269 269 268 268 268 268 268 268 268 268 268 267 267 267
282 282 282 281 281 281 281 281 281 281 280 280 279 279 279 279 278 278 278 277 277 277 276 276 276 275 275 275 275 275 274 274 274 274 273 273 272 272 271 271 270 270 270 269 269 270 270 270 270 269 269 268 268 268 268 268 268 268 268 268 268 268 268 268 268 267 267 266 266
281 281 281 281 281 280 281 280 280 280 279 279 279 279 278 278 278 277 277 277 277 276 275 275 275 275 275 275 275 274 274 274 274 273 273 272 272 272 271 270 270 270 270 270 270 270 269 269 269 268 268 268 268 268 269 269 268 268 268 268 268 267 267 267 267 267 267 266 266
281 281 281 281 280 280 280 280 279 279 278 278 278 278 278 277 277 277 276 276 276 276 275 275 274 275 275 274 274 274 275 274 273 273 272 272 272 271 271 271 270 270 270 270 270 270 269 269 268 268 268 268 268 268 268 268 268 268 267 267 267 267 267 266 266 267 267 266 266
280 280 281 281 280 280 279 279 278 278 278 278 278 277 277 276 276 276 276 275 275 275 275 274 274 274 274 274 274 274 274 274 273 272 272 272 272 271 271 271 271 271 270 270 270 269 269 269 268 268 268 268 268 268 268 268 267 267 267 267 266 266 266 266 266 266 266 266 266
280 280 280 280 280 279 279 278 278 277 277 277 277 277 276 276 276 276 275 275 275 275 274 274 274 274 274 273 273 273 273 273 272 272 272 272 272 271 271 271 271 271 270 270 269 269 269 269 268 268 268 268 268 268 267 267 266 266 266 266 266 267 267 267 267 267 266 266 266
280 280 280 280 280 279 279 278 277 277 277 277 277 276 276 276 275 275 275 275 274 274 274 274 274 273 273 273 273 272 272 272 272 272 272 272 271 271 271 271 271 270 269 269 269 269 268 268 268 268 268 268 267 267 267 267 266 266 266 266 267 267 267 267 267 267 267 267 267
280 280 280 280 279 279 278 277 277 277 277 277 276 276 276 275 275 274 274 274 274 274 273 273 273 273 273 273 272 272 272 272 271 271 271 271 271 271 271 271 270 269 269 269 269 268 268 268 268 268 268 268 267 267 267 267 267 267 267 267 267 267 267 267 268 268 268 268 268
279 279 279 279 279 278 278 277 277 277 276 276 276 276 275 275 274 274 273 273 273 273 273 273 273 272 272 272 272 272 272 271 271 270 270 270 270 270 270 270 269 269 269 269 269 269 269 268 268 268 268 268 268 267 267 268 268 268 267 267 267 267 268 268 268 269 269 269 269
279 279 279 279 278 278 277 277 276 276 276 276 276 275 275 274 273 273 273 273 272 272 272 272 272 271 271 271 271 271 271 271 270 270 270 269 269 269 269 269 269 269 269 270 272 273 272 271 270 269 268 268 268 268 268 268 268 268 268 268 268 268 268 269 269 269 270 270 270
279 279 278 278 278 277 277 276 276 276 276 275 275 274 274 273 273 273 272 272 271 271 271 271 271 271 271 270 270 270 271 270 270 270 269 269 269 269 269 269 269 269 269 271 273 274 275 274 273 271 269 268 268 268 268 268 268 268 269 269 269 269 269 269 270 270 270 271 271
278 278 278 278 277 277 276 276 276 275 275 275 274 274 273 273 273 272 272 271 270 270 270 270 270 271 271 270 270 270 270 270 270 270 269 269 269 269 269 269 269 269 270 272 274 275 276 276 276 274 272 269 269 268 268 269 269 269 269 270 270 270 270 270 270 270 271 271 271
278 278 278 277 277 276 276 276 275 275 275 274 274 273 273 272 272 272 271 270 270 269 269 270 270 270 270 269 269 269 269 269 269 269 269 269 269 269 269 269 269 269 271 273 275 276 277 277 277 277 275 271 270 269 269 269 270 270 270 270 271 271 271 271 271 271 271 270 270
278 278 277 277 276 276 275 275 275 274 274 274 273 273 272 272 271 271 270 269 269 269 269 269 269 269 269 269 269 269 269 269 269 269 269 269 269 269 269 268 269 270 272 275 276 276 277 277 278 278 278 275 272 271 271 271 271 271 271 271 271 271 271 271 271 271 271 270 270
278 277 277 276 276 276 275 275 275 274 274 273 273 272 272 271 271 270 269 269 269 269 269 269 269 269 269 269 269 269 269 269 269 269 269 269 268 268 269 269 269 270 273 276 276 277 277 278 278 279 279 278 275 273 272 272 272 272 272 272 272 272 272 271 271 271 270 270 270
277 277 277 276 276 275 275 274 274 274 273 273 272 272 271 271 270 270 269 269 269 269 269 269 268 268 268 268 268 268 268 268 269 269 269 268 269 269 269 269 269 270 273 276 277 277 278 278 278 279 279 279 277 275 274 273 273 273 273 272 272 272 271 271 271 271 270 270 270
277 277 276 276 275 275 274 274 273 273 273 272 272 271 271 270 270 269 269 269 269 269 268 268 268 268 268 268 268 268 268 268 268 268 269 269 269 269 269 269 269 270 273 276 277 277 278 278 278 279 279 279 278 275 274 273 273 273 273 272 272 271 271 271 271 270 270 270 270
277 277 276 276 275 274 274 273 273 272 272 272 271 271 271 270 270 269 269 269 269 268 268 268 267 267 267 267 268 268 268 268 268 269 269 269 269 269 269 269 269 270 273 276 277 277 278 278 278 279 278 279 277 275 274 273 273 273 272 272 271 271 271 271 270 270 270 270 270
277 276 276 275 275 274 273 272 272 272 271 271 271 271 271 270 269 269 268 268 268 268 268 268 268 268 268 268 268 268 268 268 268 269 269 269 269 269 269 269 268 271 274 276 277 277 278 278 278 278 278 278 276 275 274 273 273 272 272 271 271 271 271 270 270 270 270 270 270
276 276 276 275 274 273 273 272 272 271 271 271 271 270 270 269 269 268 268 268 268 268 268 268 268 268 268 268 268 268 268 268 268 269 269 269 269 269 269 268 268 271 275 276 277 277 277 277 278 278 278 277 275 274 273 273 272 271 271 271 270 270 270 270 270 270 270 270 270
276 276 276 275 274 273 272 271 271 271 271 270 270 270 269 269 268 268 268 269 268 268 268 268 268 268 268 268 268 268 269 269 268 269 269 269 269 269 268 268 268 271 274 276 276 277 277 277 277 278 277 276 274 273 273 272 271 271 270 270 270 270 269 269 270 270 270 270 270
277 276 275 274 273 272 272 271 271 270 270 270 270 269 269 268 268 268 268 268 268 267 267 267 268 268 268 268 268 269 269 269 269 269 269 269 269 268 268 267 267 269 273 276 276 276 276 277 277 277 277 275 273 272 272 272 271 271 270 270 270 270 269 269 270 270 270 270 270
276 276 275 274 273 272 271 271 271 270 270 270 270 269 269 268 268 268 268 268 268 267 267 268 268 268 268 268 269 269 269 269 269 268 268 268 268 268 267 267 266 268 271 275 275 276 276 277 277 277 276 274 272 272 272 271 271 271 270 270 270 270 270 270 270 271 271 271 271
276 276 275 274 273 272 271 271 271 270 270 270 269 269 268 268 268 268 268 268 268 268 268 268 268 268 268 268 269 268 268 268 268 268 268 268 268 268 267 267 266 267 269 273 274 275 275 276 276 277 276 274 273 272 272 271 271 270 270 270 270 270 270 270 271 271 271 271 273
276 275 275 274 273 272 271 271 271 271 270 270 269 268 268 268 268 269 269 269 268 268 268 268 268 268 268 269 268 268 268 267 268 268 267 267 267 267 267 266 265 266 268 272 273 274 275 275 276 276 276 274 273 272 271 271 271 270 270 270 270 270 270 270 271 271 271 272 273
275 275 274 273 273 272 271 271 271 270 270 270 269 268 268 269 269 269 269 268 268 268 268 268 268 268 268 268 268 267 267 267 267 267 267 267 267 267 267 266 265 265 267 270 272 274 274 275 275 276 276 275 273 272 272 271 271 270 270 269 269 269 269 270 270 271 272 272 272
Wind_Speed
12 11 11 10 10 9 9 8 7 7 8 9 9 10 10 10 10 10 9 9 9 8 8 8 8 7 8 10 12 12 11 10 10 10 9 9 8 8 7 7 6 6 7 8 8 7 6 5 4 3 3 3 3 2 2 2 2 2 2 2 2 2 2 3 3 4 4 4 3
14 13 12 10 10 9 8 8 7 7 8 8 9 9 9 9 9 9 9 9 8 8 7 7 7 8 9 11 12 12 11 11 11 10 10 9 8 8 7 6 6 7 8 9 8 7 6 5 4 3 3 2 2 2 1 1 2 2 2 2 2 2 2 3 4 4 4 4 4
14 13 12 11 11 10 10 9 9 9 9 8 8 8 8 8 8 8 8 8 8 7 7 7 7 9 11 12 11 11 11 11 11 10 9 8 8 8 7 6 6 7 7 8 8 7 6 5 4 3 3 2 2 2 1 1 2 2 2 3 2 2 2 3 3 3 3 3 3
14 14 14 13 14 14 13 11 11 11 10 8 7 7 7 7 7 7 7 7 7 7 7 7 8 9 10 11 11 11 10 10 11 10 9 8 8 7 7 6 6 7 7 8 8 7 7 5 4 3 3 3 3 2 2 1 1 2 2 2 2 2 2 2 2 2 2 2 3
15 15 15 14 16 15 13 11 11 10 9 7 7 7 7 7 6 6 6 7 8 8 8 9 9 9 10 11 12 11 11 11 11 10 9 8 7 7 7 7 6 6 7 8 8 8 7 6 4 3 3 3 3 2 2 2 2 1 1 1 1 1 1 2 2 2 2 2 2
15 15 15 14 14 13 12 10 11 11 9 8 9 9 9 8 8 8 9 9 9 9 10 11 10 10 10 11 12 12 11 10 10 9 9 8 7 7 7 7 6 6 7 8 8 8 7 6 4 3 3 3 2 2 2 2 2 1 1 1 1 1 1 1 1 1 1 2 2
15 15 15 14 14 13 12 10 11 10 10 9 12 13 13 11 11 11 11 10 9 10 10 11 11 12 12 12 12 12 11 10 9 9 9 8 7 7 7 6 7 7 7 8 8 8 7 5 4 3 3 3 2 2 2 2 2 1 1 2 2 1 1 1 1 1 1 1 2
14 14 14 14 14 14 13 12 11 11 11 10 12 14 15 13 13 13 12 11 10 10 10 10 12 13 14 14 13 12 12 11 10 9 9 9 8 8 7 7 7 7 7 8 8 7 6 5 4 3 3 3 2 2 2 2 2 1 1 2 1 1 0 0 0 0 0 1 1
13 14 14 13 13 13 13 13 13 13 13 12 13 14 14 13 13 13 13 11 11 11 11 11 13 14 15 15 14 13 12 12 11 10 9 9 9 8 8 7 7 7 7 7 8 8 7 5 4 3 3 3 2 2 2 3 2 2 1 1 1 0 0 0 0 0 1 1 1
14 14 14 13 13 13 13 12 13 13 14 13 13 13 13 13 14 13 12 11 10 11 11 11 13 14 15 15 14 13 12 12 11 11 10 10 10 9 8 7 7 7 7 6 7 7 7 5 4 4 3 3 3 3 3 3 3 2 1 1 0 0 1 1 1 1 1 1 2
15 14 14 13 13 13 12 12 12 12 13 13 13 13 13 13 13 13 11 10 11 12 13 12 14 15 15 14 13 13 12 11 11 11 11 10 10 9 9 8 8 8 8 7 6 6 6 5 5 4 4 3 3 3 3 3 2 1 1 1 0 1 1 1 1 1 2 2 3
15 14 13 13 13 12 12 12 11 11 12 12 13 13 13 13 13 12 11 11 13 13 13 12 14 14 14 12 13 13 12 12 12 11 11 11 10 9 9 8 8 8 8 8 6 6 5 5 5 5 4 3 3 3 3 2 2 1 1 1 1 1 1 1 1 2 2 2 3
14 13 13 12 12 13 13 13 11 11 12 12 13 13 12 12 12 12 12 13 13 12 11 11 12 13 12 12 12 12 12 12 12 12 11 10 10 10 9 8 8 8 8 8 6 6 6 6 6 6 5 4 3 3 3 3 2 2 1 1 1 1 1 1 2 2 3 3 3
13 13 13 13 13 13 13 13 11 11 11 12 12 12 11 11 11 11 12 13 12 11 11 10 10 10 10 12 12 12 13 13 13 12 12 11 10 10 9 8 8 8 8 7 6 7 7 6 6 6 5 4 4 3 3 3 2 2 2 1 1 1 1 1 1 2 2 2 2
13 13 14 13 14 13 13 13 11 11 11 12 11 10 10 9 10 10 10 11 11 11 10 10 9 8 9 11 12 13 13 13 13 13 12 11 10 10 9 9 9 8 8 7 6 6 7 7 6 6 5 5 4 3 3 3 3 2 2 2 2 1 1 1 0 1 1 1 2
14 14 14 14 14 14 13 13 11 10 10 11 10 10 9 9 9 9 9 10 10 9 9 10 9 9 9 10 11 12 13 13 13 13 13 12 11 10 10 9 9 9 9 8 7 6 6 6 6 6 6 5 5 4 3 3 3 3 2 2 2 2 1 1 1 1 1 1 2
14 14 14 15 15 15 14 13 10 10 10 10 10 10 9 8 8 8 9 10 9 9 10 10 9 9 9 10 10 11 11 12 12 12 12 12 11 11 10 10 9 9 9 9 8 7 6 5 5 5 6 6 5 5 4 4 3 3 3 2 2 2 2 2 2 1 1 2 2
13 14 14 15 15 15 15 13 11 10 10 11 11 10 9 9 9 9 9 9 9 10 11 10 9 9 10 11 10 10 10 11 12 12 12 12 11 11 10 10 9 9 9 9 9 8 7 7 6 6 6 6 5 5 5 4 4 3 3 3 2 2 2 2 2 2 2 3 3
13 14 14 15 15 15 14 13 11 11 10 10 10 10 10 10 10 10 9 9 10 11 12 11 10 10 10 11 11 10 10 10 12 12 11 11 11 11 10 10 9 9 9 9 8 8 8 7 7 6 6 5 5 5 4 4 4 3 3 3 3 3 3 3 3 3 4 4 4
14 14 15 15 14 14 13 12 11 10 10 10 11 11 11 11 11 11 11 11 11 11 12 12 12 11 11 11 11 10 9 9 11 12 12 11 11 11 10 10 9 9 9 8 8 8 8 7 7 7 6 6 5 5 4 4 4 3 3 3 3 3 4 4 4 5 5 5 5
15 15 15 14 14 13 13 12 11 10 10 11 12 12 12 12 12 12 12 12 12 12 12 13 13 13 12 12 12 11 10 8 10 11 11 11 11 11 10 10 10 9 8 8 8 8 8 7 7 7 6 6 6 5 5 4 4 4 4 3 4 4 5 5 5 6 6 6 6
15 14 14 13 13 13 12 11 11 11 12 12 13 13 13 13 12 12 12 12 12 12 12 12 13 13 13 13 12 12 10 9 9 10 10 10 10 10 10 9 9 9 8 8 8 8 8 7 7 7 7 6 6 6 5 5 5 4 4 4 5 5 5 6 6 7 7 7 7
13 12 12 12 13 13 12 12 12 12 13 13 13 13 13 13 12 12 11 11 11 11 11 11 11 12 12 12 12 12 12 10 10 9 10 9 9 9 9 9 9 9 9 8 8 8 7 7 7 7 7 6 6 6 6 6 5 5 5 5 6 6 6 7 7 8 8 8 8
12 12 11 11 12 13 13 12 13 13 13 14 14 14 13 13 12 12 11 11 11 11 10 9 9 9 10 10 11 12 12 12 12 10 9 9 9 9 9 8 8 8 8 7 8 8 8 7 6 6 6 6 6 6 6 6 6 6 6 6 7 7 7 8 8 9 9 9 8
12 13 12 12 13 13 13 13 14 14 14 14 14 14 13 13 12 12 12 12 11 11 10 9 9 8 9 9 10 11 12 12 13 12 11 10 9 9 8 7 7 7 6 7 11 12 12 10 8 7 6 6 6 6 6 6 6 7 7 7 8 8 8 8 9 9 9 8 8
13 13 13 13 14 14 14 15 15 14 14 14 14 14 13 13 13 13 13 12 11 11 10 10 9 9 9 9 9 10 10 10 11 12 12 11 10 9 8 7 6 6 6 9 13 15 16 15 13 11 8 7 6 6 6 6 7 8 8 9 9 8 8 8 8 8 8 7 7
14 14 14 14 15 15 15 15 14 14 14 14 15 14 14 13 12 13 13 12 11 11 10 10 9 9 9 8 10 10 10 9 10 11 11 11 11 10 9 7 7 6 7 11 14 16 16 17 16 15 12 8 8 7 7 7 8 9 9 9 9 9 8 8 8 7 7 6 6
15 15 15 15 15 15 15 15 15 15 15 15 15 15 14 14 14 13 13 12 12 11 9 9 9 8 8 8 10 11 11 11 10 10 10 11 11 11 10 8 7 7 10 14 15 16 16 17 17 17 15 12 9 8 8 8 8 9 9 9 9 8 8 8 7 6 6 5 5
16 15 15 16 16 16 15 15 16 16 16 16 16 15 15 15 15 14 14 13 13 12 11 9 8 7 7 8 10 10 11 11 10 10 10 11 11 10 10 9 8 9 12 16 16 16 16 16 17 17 17 16 11 9 8 8 8 8 8 7 7 7 7 6 5 5 4 4 5
16 16 16 17 17 16 16 17 17 16 16 15 15 16 16 16 15 15 15 15 14 13 12 10 9 10 10 11 11 11 11 10 10 10 11 11 11 11 10 10 9 10 13 17 16 16 16 17 17 17 17 18 13 10 8 8 7 7 6 6 6 6 6 5 5 5 4 5 5
16 17 17 18 17 17 17 17 16 16 16 15 16 17 17 17 17 16 16 16 14 12 11 11 12 12 12 12 12 12 11 11 10 10 11 12 12 11 11 10 9 10 12 16 16 16 16 16 16 16 16 16 12 9 7 7 6 6 5 5 5 5 5 5 5 5 5 6 6
17 17 18 18 18 17 17 16 16 16 16 17 17 18 18 18 17 16 16 15 13 13 13 13 13 13 13 12 12 12 12 12 11 11 11 11 11 11 10 10 9 10 12 16 16 16 16 16 16 15 14 14 10 7 6 6 5 5 5 5 4 4 4 4 5 5 6 7 7
18 18 18 18 18 17 16 16 16 16 17 17 18 18 18 17 16 15 14 13 13 14 15 15 15 14 14 14 13 13 12 12 12 12 11 11 11 10 10 9 8 10 13 15 15 16 16 16 15 14 13 12 8 6 5 5 4 4 4 4 4 4 5 5 5 6 6 7 7
18 18 18 18 18 17 16 16 16 17 17 17 17 18 17 17 16 15 14 13 12 13 14 14 14 14 14 14 14 14 13 11 11 12 12 11 11 10 10 8 6 9 13 15 16 16 16 15 14 13 12 11 7 5 4 4 4 3 3 3 4 5 5 6 6 7 7 7 7
19 19 19 18 18 17 17 17 17 17 17 18 17 17 17 17 17 16 15 14 12 12 11 11 11 11 12 12 13 13 13 12 12 12 12 11 11 11 10 8 7 10 14 15 16 16 15 14 13 12 11 9 6 4 4 4 3 3 4 4 5 5 6 6 6 7 7 7 8
20 20 20 19 18 18 18 18 18 18 18 18 18 17 16 16 15 15 15 15 13 12 11 11 10 10 11 11 10 11 12 13 13 13 12 12 12 11 10 9 8 11 14 16 16 15 14 14 13 12 10 7 5 4 4 4 3 3 4 5 5 6 6 6 7 7 7 7 8
20 20 20 20 19 19 19 19 19 19 19 19 18 18 17 15 14 12 12 13 13 13 13 12 12 12 12 13 11 10 11 13 13 13 13 12 12 11 10 9 9 11 14 16 15 14 14 13 12 11 9 6 4 4 4 3 3 4 4 5 6 6 6 6 6 6 7 7 8
20 20 20 20 20 20 20 20 20 20 20 19 18 17 16 15 13 12 13 13 13 13 13 13 13 13 13 13 12 12 11 11 12 13 13 12 11 11 10 10 9 9 11 14 14 13 13 12 11 10 8 5 5 4 4 3 4 4 4 5 5 5 5 5 5 5 6 8 9
19 20 20 20 20 20 20 20 21 21 20 19 17 16 15 13 12 12 13 12 12 13 13 13 13 13 12 12 11 11 11 10 11 11 12 11 11 10 10 10 9 8 10 12 12 12 12 11 11 10 9 6 5 4 4 4 4 4 4 4 4 4 5 4 4 5 6 8 11
18 18 19 20 20 20 21 21 20 19 18 17 16 16 15 14 12 12 12 11 11 11 12 12 13 12 11 11 11 11 10 10 10 10 10 10 10 10 10 9 8 8 9 11 12 12 12 11 11 11 9 6 5 5 4 4 4 4 4 4 4 4 4 4 4 5 6 7 9
16 17 18 18 19 19 20 20 19 17 16 15 16 15 14 13 12 11 11 10 10 10 9 9 11 11 11 10 10 10 11 10 9 9 9 9 9 9 9 8 8 8 8 9 11 12 12 12 11 11 9 7 5 5 4 4 4 4 4 4 3 3 4 4 5 5 6 6 7
Wind_Direction
196 196 195 193 192 193 195 196 192 187 185 184 184 183 182 180 181 181 180 180 180 180 179 179 178 174 169 166 168 169 169 168 168 169 170 171 171 171 169 167 160 144 131 121 116 114 112 111 110 109 111 117 123 130 139 145 151 164 185 206 214 217 220 227 232 233 233 234 235
199 198 196 193 191 192 193 194 192 190 188 188 186 184 183 182 182 180 180 181 180 176 173 172 171 168 167 167 168 167 167 167 166 166 166 167 167 165 163 161 153 140 129 121 118 116 115 114 113 113 113 112 116 124 137 145 149 168 196 219 221 221 223 228 230 230 229 230 234
198 197 196 194 193 192 193 194 194 192 190 189 186 183 182 183 183 181 180 180 175 170 166 166 167 166 166 166 166 166 165 164 163 162 162 162 161 160 157 153 143 133 126 121 120 120 119 118 118 120 123 121 125 137 153 149 143 165 193 215 219 221 225 230 229 227 225 227 228
199 198 197 197 195 195 194 193 192 190 187 185 181 180 182 184 183 180 176 172 167 167 167 165 165 165 165 163 163 162 161 159 157 156 156 156 156 154 151 145 138 131 125 121 120 121 121 121 121 125 130 133 140 151 163 154 143 158 184 199 197 204 214 226 222 219 217 221 219
200 200 200 199 198 197 195 192 189 186 184 178 177 179 182 183 179 174 170 169 172 172 169 162 162 163 163 160 158 156 154 153 152 151 151 151 150 148 144 140 136 131 125 121 122 123 124 123 123 126 132 138 145 154 158 148 147 159 186 196 190 194 205 222 223 218 217 223 226
201 202 202 201 199 197 195 192 187 184 180 176 178 181 183 182 178 175 174 175 174 168 162 159 159 158 157 156 153 151 150 149 148 147 146 146 145 142 138 136 134 129 125 121 121 122 123 124 124 126 128 133 138 142 142 139 152 179 226 254 243 231 226 235 235 236 239 248 259
201 201 201 201 197 196 194 191 186 181 179 179 183 184 184 181 179 177 174 172 166 163 161 161 160 159 157 156 153 151 149 148 145 144 143 143 142 140 138 136 131 127 124 122 120 120 120 122 125 126 128 130 133 132 130 132 153 189 230 252 256 251 240 239 246 251 257 263 274
201 201 201 199 196 194 193 189 184 181 182 185 188 187 184 179 176 173 170 166 165 165 165 164 163 162 159 157 155 152 149 146 145 144 144 142 141 140 138 134 129 126 124 122 121 120 119 118 123 127 130 132 137 134 127 125 139 168 209 236 257 264 226 197 233 271 271 275 302
202 202 200 197 195 193 191 187 184 184 186 189 189 186 182 176 174 171 169 169 169 167 165 165 164 162 159 156 154 152 150 148 147 146 145 144 143 143 140 136 131 127 123 120 119 120 119 117 119 123 127 132 137 132 123 119 127 144 173 197 232 297 343 23 30 4 333 322 324
201 199 197 196 194 192 188 185 185 186 187 188 187 184 181 177 175 173 172 170 166 165 166 166 164 161 159 156 154 152 150 148 147 147 146 146 146 146 145 142 136 131 126 120 119 119 119 118 118 119 120 123 128 127 123 119 126 140 165 182 200 293 312 319 337 336 329 328 329
199 197 194 194 192 188 184 183 186 187 187 186 185 183 181 179 178 176 172 164 163 167 169 167 164 162 160 158 155 153 150 148 147 147 147 148 148 148 147 145 140 135 130 126 121 119 119 120 121 122 121 120 125 127 126 123 130 148 187 212 212 261 284 299 323 335 339 342 344
198 195 192 191 188 184 182 183 186 187 187 186 184 183 182 180 178 174 168 163 167 170 170 167 166 164 162 159 156 152 149 147 146 146 146 147 147 146 145 143 139 135 132 129 125 122 122 123 126 129 131 131 131 133 135 136 145 169 209 235 239 260 279 303 339 354 360 1 353
195 191 189 188 184 182 182 185 186 187 187 186 184 183 182 179 176 171 168 167 169 168 167 167 167 165 162 159 156 152 149 147 146 145 145 146 145 144 143 141 139 135 132 130 127 125 125 127 131 135 140 146 147 147 147 148 158 178 206 238 264 283 297 325 356 6 8 4 353
190 188 187 184 182 183 184 187 187 188 188 187 184 182 179 176 174 172 170 169 167 165 163 166 168 167 164 160 155 152 149 147 145 144 144 145 145 144 143 142 140 137 134 131 127 126 128 130 135 139 145 152 159 160 158 153 159 167 179 195 216 247 279 322 360 8 5 354 341
189 187 185 182 182 184 187 188 189 188 187 186 183 179 175 172 173 172 170 167 165 162 161 164 167 167 163 159 155 151 148 145 144 144 144 144 145 145 145 143 140 137 134 132 129 129 131 135 138 141 145 150 158 160 158 151 151 153 161 170 181 197 218 244 336 360 347 330 317
189 187 184 181 183 186 188 189 188 187 186 185 180 175 172 171 171 170 167 165 162 160 161 164 163 162 160 158 154 149 146 145 145 145 145 147 148 148 147 145 142 138 134 132 131 132 135 138 139 140 143 147 149 150 147 144 144 148 155 162 171 183 198 211 216 234 253 270 277
189 187 184 183 185 187 188 188 186 184 183 181 175 172 170 167 167 167 166 164 160 160 162 164 161 159 158 159 155 151 147 146 147 148 149 150 151 151 149 148 144 140 136 134 134 136 137 138 137 137 139 144 145 146 145 145 147 151 157 164 173 185 197 209 214 220 227 237 247
190 188 186 185 186 187 187 185 182 179 177 175 171 169 167 163 164 165 165 162 160 161 161 162 161 161 160 161 159 155 152 150 151 151 151 152 152 151 150 148 144 140 137 136 138 140 140 139 136 135 137 142 144 146 147 149 152 157 163 170 179 189 198 207 211 215 221 228 235
190 188 187 187 188 187 184 181 177 173 171 169 167 165 163 162 162 161 161 163 163 162 161 161 162 164 164 162 161 158 155 152 151 150 150 150 150 149 148 146 142 140 138 139 140 142 142 141 139 139 141 144 145 147 149 151 157 163 170 178 187 196 203 208 212 216 220 225 229
189 188 188 188 185 183 180 177 172 168 165 164 162 162 161 161 161 161 162 165 164 163 162 162 163 165 166 163 160 157 155 152 150 149 149 149 149 149 148 145 142 141 140 140 141 142 143 143 143 144 146 149 152 154 156 158 164 172 180 187 196 203 209 212 215 218 221 223 225
189 188 187 184 181 179 177 173 167 163 161 161 162 162 161 161 162 164 165 165 163 162 163 165 165 166 165 163 159 156 153 150 149 148 149 149 150 150 148 145 143 141 141 142 143 145 146 147 149 150 153 156 160 163 166 168 173 181 189 197 205 210 214 216 219 220 222 223 224
188 185 182 178 176 174 171 166 162 160 160 162 162 162 161 162 165 165 164 161 161 163 166 168 168 167 166 163 159 155 151 147 148 148 149 149 149 148 147 144 142 142 143 145 147 148 150 152 154 156 159 163 167 170 172 175 180 189 197 206 213 217 219 221 222 222 223 223 223
182 178 175 172 171 169 167 163 161 160 161 163 163 162 162 163 163 161 158 158 162 165 167 168 168 167 165 162 156 151 147 145 146 146 146 146 145 145 144 142 143 145 148 150 150 150 151 154 158 162 165 168 171 174 176 180 186 194 203 211 217 221 223 224 224 224 223 222 222
173 171 170 169 168 167 165 163 162 163 164 165 164 163 162 161 158 157 157 160 163 165 166 165 165 164 161 157 152 149 147 146 146 146 146 144 144 143 143 143 146 149 152 154 158 160 160 160 162 166 170 172 174 177 180 184 191 198 206 213 219 222 224 225 224 223 222 222 221
168 167 167 166 167 167 165 164 165 166 166 165 163 161 159 158 157 157 158 160 162 162 161 159 158 157 155 153 151 149 148 148 148 148 147 146 145 144 144 146 150 152 156 162 172 174 174 173 172 172 173 175 176 179 182 189 196 203 209 215 219 222 224 225 223 222 221 221 222
166 167 167 167 167 166 167 167 167 166 164 161 160 159 158 158 157 157 157 159 159 158 156 154 154 154 154 153 150 149 149 149 150 149 149 148 148 148 150 152 155 158 164 173 180 181 182 182 180 177 174 175 177 180 186 195 202 207 212 217 220 222 223 225 226 225 224 224 225
167 168 169 167 166 167 169 168 165 163 162 160 160 160 159 158 157 157 157 157 156 154 152 152 154 155 155 152 152 152 152 152 152 152 152 152 153 154 156 159 161 164 172 180 184 186 187 188 186 182 177 174 176 181 186 194 202 207 212 216 219 221 224 227 230 231 231 231 231
170 169 168 166 168 169 169 165 164 164 164 163 162 160 158 156 156 157 157 156 154 152 152 155 156 156 155 156 157 157 156 155 155 155 155 155 157 159 161 163 165 171 177 182 186 188 191 193 193 188 181 174 176 181 186 193 199 204 208 213 217 221 224 228 231 234 236 239 239
170 168 167 167 170 170 168 166 167 167 166 164 161 158 157 157 158 158 157 156 156 157 159 160 159 158 160 163 162 160 157 157 157 157 157 158 160 162 165 166 169 176 181 184 186 189 192 195 199 195 189 180 178 180 186 192 196 201 205 210 214 219 223 226 230 235 241 249 253
169 168 168 171 171 170 170 171 170 167 164 161 159 159 159 160 161 161 161 161 163 164 164 161 161 164 167 166 163 161 160 161 160 159 159 161 164 167 169 171 172 178 184 186 187 189 193 196 200 201 197 188 181 178 181 188 194 199 205 209 213 217 222 229 236 243 251 258 262
170 170 171 172 172 172 172 171 168 164 162 161 161 162 163 164 165 166 166 167 167 166 163 160 163 167 167 165 163 162 163 162 162 163 164 166 168 170 171 173 172 179 185 188 188 191 194 198 200 202 202 196 186 178 176 182 190 197 204 209 213 217 224 235 242 249 254 257 260
172 172 172 173 173 173 172 168 166 164 163 163 165 166 168 169 169 169 168 167 164 162 162 164 167 166 165 164 164 164 163 162 165 167 169 170 170 170 171 172 172 179 186 189 190 193 197 200 200 201 202 201 192 180 170 176 186 194 202 209 214 221 229 239 246 249 250 252 255
173 173 174 174 174 172 169 167 166 165 166 167 169 170 171 170 169 168 167 167 164 164 166 168 168 168 167 167 166 165 165 166 167 168 169 169 168 168 169 171 172 180 186 189 191 195 200 202 201 200 200 201 194 178 165 169 178 190 200 210 218 226 234 238 242 244 246 249 251
175 175 175 174 172 170 168 167 166 166 167 170 172 173 172 169 168 168 169 170 169 169 170 171 171 171 170 168 167 166 166 166 167 167 167 167 166 166 167 170 174 183 187 188 193 197 200 202 200 199 198 198 189 172 160 167 176 189 202 214 223 229 233 235 238 241 243 245 248
175 175 175 174 171 169 167 167 167 168 170 173 175 175 174 171 170 170 170 170 169 169 171 173 173 172 170 169 166 164 163 163 164 165 166 165 164 166 168 169 173 183 187 189 194 198 200 200 198 197 196 193 178 161 157 169 180 195 207 217 224 229 231 233 237 239 242 244 247
176 175 174 173 170 169 168 168 169 171 173 176 177 176 175 174 173 171 169 167 166 168 171 173 173 172 171 170 167 165 164 162 162 163 164 163 164 167 169 168 173 183 189 191 195 197 198 197 196 195 193 184 160 148 153 167 182 199 211 219 226 229 230 231 235 238 241 244 246
177 175 173 171 170 169 169 169 171 174 177 179 178 176 175 173 172 171 169 166 167 169 171 171 173 174 173 170 168 167 165 162 161 160 162 164 166 167 167 166 172 184 190 192 194 195 196 196 195 193 190 172 146 141 153 170 188 204 213 221 226 228 229 231 234 237 240 242 243
177 175 173 171 171 171 171 171 174 177 179 180 178 175 173 170 170 170 171 170 170 170 171 172 174 175 174 169 166 163 161 160 159 159 161 164 166 166 165 164 170 182 191 193 194 195 196 195 194 191 185 163 148 149 163 181 196 207 214 221 226 228 229 232 236 239 242 242 245
177 175 173 172 171 171 172 174 178 179 179 177 175 173 171 170 171 172 173 173 172 171 171 173 175 174 170 164 159 156 156 157 157 158 159 163 164 164 163 163 166 177 188 193 194 195 195 194 193 190 184 167 157 159 172 187 199 208 214 219 226 231 233 236 241 245 247 246 251
176 175 174 173 172 173 174 177 180 179 177 174 172 171 171 171 171 171 171 173 174 173 172 173 172 169 164 158 153 151 151 153 154 156 157 158 159 160 161 161 162 171 183 192 194 195 194 192 192 191 186 170 161 164 175 188 199 207 214 219 225 233 240 243 246 248 251 251 253
174 174 174 174 174 174 175 178 179 177 175 172 171 171 170 168 167 167 168 171 173 173 172 170 166 162 157 153 150 148 148 150 152 153 153 152 155 158 160 160 160 166 178 192 195 195 193 191 192 192 188 174 166 168 178 188 198 206 213 219 226 236 246 251 251 251 251 251 252